Location: Chantarel
(45.1638°N, 1.7873°E)
Time: 12:27:50
(UTC+00:00)

Cosmos 1844 Rocket - Pass Details

Date: 03 March 2021
Orbit: 826 x 843 km, 71.0° (Epoch: 11 April)

Event Time Altitude Azimuth Distance (km) Brightness Sun altitude
Rises 20:06:01 0° 326° (NW) 3,373 6.6 -25.7°
Reaches altitude 10° 20:08:38 10° 318° (NW) 2,435 5.9 -26.2°
Maximum altitude 20:13:35 34° 255° (WSW) 1,341 4.1 -27.0°
Enters shadow 20:17:49 13° 196° (SSW) 2,191 4.8 -27.7°
